Date String (YYYY-MM-DD hh:mm:ss) UTC,Instrument flags,Ambient pressure (hPa),Sample flow (lpm),Bypass flow (lpm),Sample temperature (°C),Ambient temperature (°C),ASC tube jacket temperature (°C),LED temperature (°C),Box temperature (°C),Sample RH (%),Span deviation,Mass concentration (μg/m³),Mass concentration (μg/m³),Mass concentration (μg/m³)
DateTimeUTC,F1_M11,P_M11,Q1_M11,Q2_M11,T1_M11,T2_M11,T3_M11,T4_M11,T5_M11,U1_M11,ZSPAN_M11,X0_M11,X2_M11,X1_M11
2022-06-13 18:00:00,,0815.4,5.00,0.00,28.7,26.8,00.0,37.4,30.5,10.2,0005.0,0049.38,0036.18,0034.66
2022-06-13 18:01:00,,0815.4,5.01,0.00,28.7,26.9,00.0,37.4,30.5,09.8,0004.9,0048.67,0035.40,0033.87
2022-06-13 18:02:00,,0815.2,5.00,0.00,28.7,27.0,00.0,37.5,30.5,10.2,0004.6,0048.22,0034.59,0033.12
2022-06-13 18:03:00,,0815.1,5.00,0.00,28.7,27.2,00.0,37.5,30.5,11.1,0004.3,0048.20,0033.95,0032.44
2022-06-13 18:04:00,,0815.2,5.00,0.00,28.7,27.4,00.0,37.5,30.6,11.1,0004.2,0046.77,0033.25,0031.74
2022-06-13 18:05:00,,0815.1,4.99,0.00,28.7,27.6,00.0,37.5,30.7,10.4,0004.2,0045.37,0032.43,0031.00
2022-06-13 18:06:00,,0815.1,5.00,0.00,28.8,27.6,00.0,37.5,30.7,09.3,0004.2,0043.25,0031.67,0030.25
2022-06-13 18:07:00,,0815.0,4.99,0.00,28.7,27.0,00.0,37.4,30.6,09.8,0004.3,0041.11,0030.82,0029.48
2022-06-13 18:08:00,,0815.0,5.00,0.00,28.7,26.8,00.0,37.4,30.5,09.0,0003.9,0040.51,0030.17,0028.86
2022-06-13 18:09:00,,0814.9,5.00,0.00,28.7,26.9,00.0,37.4,30.5,09.1,0003.9,0039.48,0029.48,0028.22
2022-06-13 18:10:00,,0814.9,5.00,0.00,28.7,27.1,00.0,37.4,30.5,10.3,0003.8,0038.04,0028.79,0027.58
2022-06-13 18:11:00,,0814.9,5.00,0.00,28.7,27.2,00.0,37.4,30.6,10.7,0003.3,0037.29,0028.47,0027.27
2022-06-13 18:12:00,,0814.9,5.00,0.00,28.7,27.4,00.0,37.5,30.7,10.7,0002.9,0037.11,0028.25,0027.07
2022-06-13 18:13:00,,0814.9,5.00,0.00,28.7,27.7,00.0,37.5,30.8,10.0,0003.0,0037.73,0028.05,0026.86
2022-06-13 18:14:00,,0814.8,5.00,0.00,28.8,27.8,00.0,37.5,30.8,09.5,0003.4,0037.64,0027.74,0026.52
2022-06-13 18:15:00,,0814.8,5.01,0.00,28.8,27.5,00.0,37.5,30.7,09.4,0003.6,0037.61,0027.49,0026.26
2022-06-13 18:16:00,,0814.9,5.00,0.00,28.7,26.9,00.0,37.4,30.6,08.8,0004.1,0037.88,0027.48,0026.19
2022-06-13 18:17:00,,0814.8,4.99,0.00,28.7,26.9,00.0,37.4,30.6,09.9,0004.1,0037.88,0027.38,0026.04
2022-06-13 18:18:00,,0814.8,5.00,0.00,28.7,27.0,00.0,37.4,30.6,09.6,0003.8,0038.29,0027.16,0025.76
2022-06-13 18:19:00,,0814.8,4.99,0.00,28.7,27.2,00.0,37.5,30.6,08.8,0004.1,0037.32,0026.70,0025.32
2022-06-13 18:20:00,,0815.0,5.00,0.00,28.7,27.4,00.0,37.5,30.7,08.4,0004.6,0036.93,0026.15,0024.79
2022-06-13 18:21:00,,0814.8,5.01,0.00,28.8,27.6,00.0,37.5,30.7,08.9,0005.0,0036.89,0025.69,0024.32
2022-06-13 18:22:00,,0814.8,5.00,0.00,28.8,27.8,00.0,37.5,30.8,08.7,0005.0,0036.64,0025.30,0023.93
2022-06-13 18:23:00,,0815.1,4.99,0.00,28.9,27.8,00.0,37.5,30.8,08.7,0005.2,0035.95,0024.86,0023.53
2022-06-13 18:24:00,,0814.6,4.99,0.00,28.8,27.2,00.0,37.5,30.7,08.7,0005.4,0034.50,0024.32,0023.06
2022-06-13 18:25:00,,0814.8,5.02,0.00,28.8,27.0,00.0,37.5,30.6,09.9,0005.3,0032.68,0023.84,0022.65
2022-06-13 18:26:00,,0815.0,4.99,0.00,28.7,27.0,00.0,37.5,30.6,09.9,0005.3,0032.42,0023.30,0022.18
2022-06-13 18:27:00,,0815.0,5.00,0.00,28.7,27.1,00.0,37.5,30.6,08.8,0005.4,0032.17,0022.50,0021.45
2022-06-13 18:28:00,,0815.1,5.00,0.00,28.7,27.3,00.0,37.5,30.7,08.9,0005.4,0031.16,0021.81,0020.84
2022-06-13 18:29:00,,0814.8,5.00,0.00,28.8,27.5,00.0,37.5,30.7,08.3,0005.3,0029.92,0021.43,0020.49
2022-06-13 18:30:00,,0814.8,5.00,0.00,28.8,27.7,00.0,37.5,30.8,08.9,0005.3,0030.56,0021.29,0020.38
2022-06-13 18:31:00,,0814.6,5.00,0.00,28.8,27.7,00.0,37.5,30.8,08.9,0005.1,0030.34,0021.30,0020.39
2022-06-13 18:32:00,,0814.8,4.99,0.00,28.8,27.1,00.0,37.5,30.6,09.0,0004.8,0030.77,0021.47,0020.56
2022-06-13 18:33:00,,0814.9,5.01,0.00,28.7,26.9,00.0,37.5,30.6,08.9,0004.6,0030.59,0021.54,0020.67
2022-06-13 18:34:00,,0814.8,5.02,0.00,28.7,27.0,00.0,37.5,30.6,09.9,0005.0,0030.23,0021.64,0020.74
2022-06-13 18:35:00,,0814.8,5.01,0.00,28.7,27.1,00.0,37.5,30.6,08.9,0005.0,0030.22,0021.85,0020.91
2022-06-13 18:36:00,,0815.1,5.01,0.00,28.7,27.3,00.0,37.5,30.6,08.6,0005.1,0030.10,0021.97,0021.02
2022-06-13 18:37:00,,0814.8,5.00,0.00,28.8,27.5,00.0,37.5,30.7,09.2,0005.3,0029.82,0022.09,0021.12
2022-06-13 18:38:00,,0814.8,4.99,0.00,28.8,27.7,00.0,37.5,30.8,08.9,0005.1,0029.32,0022.49,0021.44
2022-06-13 18:39:00,,0814.8,5.00,0.00,28.8,27.8,00.0,37.6,30.8,09.5,0005.0,0029.96,0022.86,0021.76
2022-06-13 18:40:00,,0815.1,4.99,0.00,28.9,27.5,00.0,37.5,30.8,09.8,0005.1,0031.07,0023.00,0021.86
2022-06-13 18:41:00,,0815.2,5.00,0.00,28.8,27.0,00.0,37.5,30.6,08.8,0005.1,0030.70,0022.95,0021.81
2022-06-13 18:42:00,,0814.7,5.00,0.00,28.8,27.0,00.0,37.5,30.6,09.5,0005.1,0030.33,0022.94,0021.79
2022-06-13 18:43:00,,0814.6,4.99,0.00,28.7,27.0,00.0,37.5,30.6,10.0,0005.0,0029.70,0022.76,0021.59
2022-06-13 18:44:00,,0814.7,5.01,0.00,28.7,27.2,00.0,37.5,30.6,10.3,0005.0,0029.84,0022.57,0021.35
2022-06-13 18:45:00,,0814.8,5.01,0.00,28.8,27.4,00.0,37.5,30.7,09.0,0004.5,0029.84,0022.31,0021.10
2022-06-13 18:46:00,,0814.6,5.00,0.00,28.8,27.6,00.0,37.5,30.7,09.1,0004.1,0029.89,0022.05,0020.83
2022-06-13 18:47:00,,0814.4,4.99,0.00,28.8,27.7,00.0,37.6,30.8,09.4,0003.8,0030.23,0021.86,0020.63
